This is the latest recevied weather packets stored in our database for station/object HS2LXA-WX. If no packets are shown the sender has not sent any weather packets the latest 10 day(s).
| Time | Temp. | Humidity | Pressure | Rain* | Wind** | Luminosity | Snow |
|---|---|---|---|---|---|---|---|
| 1788114277 | 31.67° C | 86% | 1009.6 hPa | 0 mm | - | - | - |
| 1788112107 | 31.67° C | 86% | 1010 hPa | 0 mm | - | - | - |
| 1788111071 | 30.56° C | 92% | 1010.2 hPa | 0 mm | - | - | - |
| 1788110471 | 28.89° C | 94% | 1010.1 hPa | 0 mm | - | - | - |
| 1788109080 | 28.89° C | 94% | 1010.4 hPa | 0.25 mm | - | - | - |
| 1788108480 | 28.89° C | 93% | 1010.4 hPa | 0.25 mm | - | - | - |
| 1788107833 | 28.89° C | 93% | 1010.4 hPa | 0.25 mm | - | - | - |
| 1788107231 | 29.44° C | 93% | 1010.4 hPa | 0.25 mm | - | - | - |
| 1788106632 | 29.44° C | 92% | 1010.4 hPa | 0.25 mm | - | - | - |
| 1788105541 | 29.44° C | 92% | 1010.5 hPa | 0.25 mm | - | - | - |
| 1788104655 | 29.44° C | 94% | 1010.7 hPa | 0.25 mm | - | - | - |
| 1788104056 | 29.44° C | 95% | 1010.6 hPa | 0.25 mm | - | - | - |
| 1788102079 | 29.44° C | 94% | 1010.7 hPa | 0.25 mm | - | - | - |
| 1788101479 | 29.44° C | 92% | 1010.7 hPa | 0.25 mm | - | - | - |
| 1788100878 | 29.44° C | 93% | 1010.6 hPa | 0.25 mm | - | - | - |
| 1788100280 | 29.44° C | 92% | 1010.5 hPa | 0.25 mm | - | - | - |
| 1788099674 | 30° C | 92% | 1010.5 hPa | 0.25 mm | - | - | - |
| 1788099074 | 30.56° C | 93% | 1010.3 hPa | 0.25 mm | - | - | - |
| 1788098473 | 29.44° C | 95% | 1010.2 hPa | 0.25 mm | - | - | - |
| 1788097874 | 29.44° C | 96% | 1010.3 hPa | 0.25 mm | - | - | - |
| 1788096752 | 30° C | 95% | 1009.9 hPa | 0.25 mm | - | - | - |
| 1788096151 | 29.44° C | 96% | 1009.7 hPa | 0.25 mm | - | - | - |
| 1788095550 | 30° C | 95% | 1009.6 hPa | 0.25 mm | - | - | - |
| 1788094950 | 29.44° C | 95% | 1009.5 hPa | 0.25 mm | - | - | - |
| 1788094310 | 29.44° C | 95% | 1009.5 hPa | 0.25 mm | - | - | - |
* Rain latest hour (hover to see other rain measurements)
** Current wind speed in m/s (hover to see current wind gust speed)